Location: Newark
(27.9675°N, 86.8869°E)
Time: 23:56:20
(UTC+00:00)

N. Korean satellite - Visible Passes

Search period start: 19 September 2019 00:00
Search period end: 29 September 2019 00:00
Orbit: 455 x 509 km, 97.2° (Epoch: 18 September)

Date Brightness Start Highest point End Pass type
(mag) Time Alt. Az. Time Alt. Az. Time Alt. Az.
21 Sep 9.1 23:30:58 10° NE 23:33:54 26° E 23:36:51 10° SSE visible
22 Sep 10.2 23:07:26 10° ENE 23:08:36 11° E 23:09:45 10° ESE visible
25 Sep 9.5 23:23:41 10° NE 23:26:21 21° E 23:29:02 10° SSE visible
27 Sep 10.7 12:36:19 10° W 12:36:30 10° W 12:36:41 10° W visible
28 Sep 8.2 23:40:47 10° NNE 23:44:03 39° E 23:47:21 10° S visible
